Starlink 4504

operational
NORAD ID: 53555 Int'l Des: 2022-101 Owner: SPXS Country: US Constellation: starlink
LEOCIRCULAR

About Starlink 4504

Description loading...

Live Position

Loading 3D Globe...

Upcoming Passes

Altitude History

Altitude vs Time

uPlot chart will show altitude changes over time

Two-Line Element Set

1 53555U 22101AE 26061.11869756 .00000016 00000-0 19117-4 0 9997
2 53555 53.2161 98.1080 0001271 93.2771 266.8366 15.08836940195825
Epoch: Mar 2, 2026 • Age: 29 hours

Current Status

Altitude 539.6 km
Velocity 7.60 km/s
Sub-Earth Point 12.90°N, 27.3°E
Launch Date Aug 19, 2022
Age 3.5 years
Type internet

Technical Details

Classification Payload
Mass 300.00 kg
Dry Mass 290.00 kg
Total Mass 300.00 kg
Length 0.20 m
Diameter 2.80 m
Span 9.00 m
Shape Box + pan
Manufacturer SPXS
Bus Type Starlink
Phase Status In Orbit
Owner/State SPXS/US

Large Constellations

Loading constellations...